Location: Castifao
(42.5040°N, 9.1124°E)
Time: 15:21:11
(UTC+00:00)

Ariane Rocket - Pass Details

Date: 23 January 2020
Orbit: 761 x 770 km, 98.7° (Epoch: 25 February)

Event Time Altitude Azimuth Distance (km) Brightness Sun altitude
Rises 17:45:02 0° 137° (SE) 3,216 5.9 -14.7°
Reaches altitude 10° 17:47:33 10° 127° (SE) 2,295 5.1 -15.2°
Maximum altitude 17:51:57 31° 66° (ENE) 1,323 3.7 -16.0°
Drops below altitude 10° 17:56:22 10° 6° (N) 2,314 5.3 -16.8°
Sets 17:58:54 0° 356° (N) 3,246 6.2 -17.2°
